{"data":{"norad_id":69406,"intl_designator":"2026-125F","name":"QIANFAN-188","alt_names":[],"object_type":"PAYLOAD","status":"ACTIVE","operator":null,"country":"PRC","launch_date":"2026-06-05","launch_site_code":"WSC","launch_vehicle":null,"mission":null,"orbit_class":"UNKNOWN","rcs_meters":null,"size_class":null,"mass_kg":null,"dimensions":null,"purposes":[],"wikipedia_slug":null,"has_3d_model":false,"image_url":null,"decayed_at":null,"tle_current":{"epoch":"2026-09-20T20:17:45.976128Z","epoch_age_seconds":96003,"freshness":"FRESH","line1":"1 69406U 26125F   26263.84567102  .00000033  00000+0  32101-4 0  9999","line2":"2 69406  88.9883 270.2782 0002092 102.3972 257.7414 13.51029444 14868","mean_motion":13.51029444,"eccentricity":0.0002092,"inclination_deg":88.9883,"raan_deg":270.2782,"arg_perigee_deg":102.3972,"mean_anomaly_deg":257.7414,"bstar":3.2101e-5,"rev_number":1486,"period_min":106.5853898592,"perigee_km":1066.9155593355,"apogee_km":1070.0312211228,"semimajor_km":7446.6103902292,"source":"CELESTRAK","updated_at":"2026-09-21T09:00:17.995296Z"}}}